Location: Newark
(59.4564°N, 26.6917°E)
Time: 20:50:47
(UTC+00:00)

SR - Pass Details

Date: 24 November 2019
Orbit: 573 x 882 km, 66.7° (Epoch: 13 December)

Event Time Altitude Azimuth Distance (km) Brightness Sun altitude
Rises 18:15:35 0° 305° (NW) 3,457 ? -34.6°
Reaches altitude 10° 18:18:05 10° 308° (NW) 2,537 ? -34.9°
Enters shadow 18:21:47 39° 322° (NW) 1,307 ? -35.4°
Maximum altitude 18:24:01 68° 32° (NNE) 952 - -35.6°
Drops below altitude 10° 18:29:55 10° 115° (ESE) 2,520 - -36.3°
Sets 18:32:23 0° 118° (ESE) 3,433 - -36.6°
